Flag for U.S.A. Weather past 2 weeks in Fremont, California, U.S.A.

Now
47 °F

Sunny.


Feels Like: 47 °F
Forecast: 43 / 63 °F
Wind: No wind

Location: Moffett Field

Current Time: Mar 3, 2015 at 8:50:44 AM

Latest Report: Mar 3, 2015 at 7:56 AM


Visibility: 10 mi

Pressure: 30.06 "Hg

Humidity: 86%

Dew point: 43 °F

Location of FremontLocation

Historic Weather in Fremont — Graph

°F

Fremont temperature yesterday

Maximum temperature yesterday: 60 °F (at 12:56 PM)
Minimum temperature yesterday: 44 °F (at 5:56 AM)
Average temperature yesterday: 51 °F

Past Weeks' High & Low Weather Summary

 TemperatureHumidityPressure
High71 °F (Feb 16, 1:56 PM)97% (Mar 1, 3:56 AM)30.38 "Hg (Mar 1, 3:56 AM)
Low38 °F (Feb 24, 6:56 AM)17% (Feb 24, 11:56 AM)29.75 "Hg (Feb 28, 3:56 AM)
Average55 °F67%30.03 "Hg
* Reported Feb 16 7:56 AM — Mar 3 7:56 AM, Fremont, Weather by CustomWeather, © 2015

Note: Actual official high and low records may vary slightly from our data, if they occured in-between our weather recording intervals... More about our weather records

Advertising

Fremont weather history for previous 24 hours

 ConditionsComfort  
Time TempWeatherWind HumidityBarometerVisibility
7:56 AM
Tue, Mar 3
47 °FSunny.No wind86%30.06 "Hg10 mi
6:56 AM43 °FSunny.No wind86%30.04 "Hg10 mi
5:56 AM42 °FClear.No wind89%30.03 "Hg10 mi
4:56 AM43 °FClear.No wind86%30.02 "Hg10 mi
3:56 AM42 °FClear.No wind89%30.01 "Hg10 mi
2:56 AM44 °FClear.No wind85%30.02 "Hg10 mi
1:56 AM45 °FClear.No wind86%30.02 "Hg10 mi
12:56 AM44 °FClear.No wind85%30.01 "Hg10 mi
11:56 PM
Mon, Mar 2
48 °FClear.No wind80%30.00 "Hg10 mi
10:56 PM48 °FClear.No wind80%29.99 "Hg10 mi
9:56 PM49 °FClear.No wind80%29.97 "Hg10 mi
8:56 PM51 °FClear.No wind77%29.95 "Hg10 mi
7:56 PM53 °FClear.No wind72%29.93 "Hg10 mi
6:56 PM53 °FPassing clouds.No wind66%29.90 "Hg10 mi
5:56 PM55 °FPassing clouds.5 mph64%29.86 "Hg10 mi
4:56 PM56 °FSunny.5 mph65%29.84 "Hg10 mi
3:56 PM55 °FPartly sunny.9 mph69%29.83 "Hg10 mi
2:56 PM56 °FLight rain. Mostly cloudy.8 mph67%29.83 "Hg10 mi
1:56 PM58 °FPassing clouds.7 mph56%29.82 "Hg10 mi
12:56 PM60 °FPartly sunny.3 mph47%29.82 "Hg10 mi
11:56 AM58 °FScattered clouds.5 mph51%29.83 "Hg10 mi
10:56 AM56 °FPartly sunny.6 mph62%29.84 "Hg10 mi
9:56 AM55 °FSunny.8 mph67%29.85 "Hg10 mi
8:56 AM53 °FPartly sunny.6 mph69%29.86 "Hg10 mi
Weather by CustomWeather, © 2015

See weather overviewHow to use our weather pages